Wind_Speed
12 11 8 6 6 8 8 10 11 12 13 12 13 13 12 12 13 12 13 13 13 12 11 11 11 11 12 12 12 12 12 12 12 10 11 10 11 10 11 10 11 10 10
15 11 9 9 6 6 7 9 10 11 12 12 12 12 12 13 13 13 13 12 12 12 11 12 14 12 11 11 11 12 11 11 11 9 9 7 8 9 8 10 9 9 8
15 12 11 10 9 8 6 9 9 11 11 12 13 14 14 13 12 13 13 12 11 11 11 13 12 11 10 11 12 11 11 11 10 8 8 9 10 7 7 7 8 7 7
15 13 11 11 9 9 7 9 10 10 11 14 12 12 13 13 12 13 12 11 11 11 12 11 11 11 10 11 11 10 9 9 8 7 7 7 6 5 4 6 7 6 6
13 11 10 10 9 7 8 10 10 9 11 13 11 13 13 13 12 13 10 10 10 11 9 9 9 9 9 8 8 8 6 5 4 2 4 3 3 4 4 5 6 6 6
11 10 10 9 10 10 10 9 9 8 10 11 11 13 12 12 13 9 9 10 10 8 9 9 8 8 7 7 8 7 5 5 5 5 6 3 1 4 4 4 4 5 5
10 10 9 9 10 10 11 13 8 9 9 10 11 11 11 11 10 9 9 11 10 11 11 10 7 6 6 7 7 6 8 8 6 6 4 7 4 4 4 5 5 5 5
8 9 10 9 10 10 10 11 10 9 8 9 11 10 10 9 7 8 10 10 11 11 11 10 9 7 5 5 5 7 8 10 9 5 5 0 3 2 3 4 5 6 7
7 8 9 11 10 11 9 11 9 9 8 8 10 9 7 6 6 7 8 9 9 10 10 9 10 9 7 6 8 11 13 14 14 10 8 3 3 5 4 5 5 6 8
7 9 8 9 13 13 11 12 7 8 8 8 8 7 5 4 4 6 7 7 8 9 8 10 11 11 11 9 8 8 10 12 14 17 14 6 5 4 6 7 7 8 9
9 9 9 7 12 13 12 12 9 7 7 6 6 5 3 3 5 6 7 7 7 7 8 9 10 8 7 5 5 6 11 18 15 14 15 9 10 7 7 8 8 10 11
11 10 10 9 11 12 11 9 8 7 6 5 5 6 4 4 4 5 5 6 7 7 7 7 7 6 4 3 3 6 13 19 19 17 15 9 11 10 10 7 9 10 10
12 11 10 11 11 10 10 8 5 7 7 6 4 2 1 1 1 3 6 8 8 10 8 6 8 9 13 12 6 3 7 18 21 26 21 10 10 10 9 8 9 10 8
12 11 10 11 11 10 9 7 5 5 4 4 4 3 2 2 2 5 5 6 9 10 8 7 5 3 3 7 5 6 3 10 21 19 20 13 6 6 7 7 8 6 5
12 12 11 12 12 10 9 8 5 6 7 4 2 3 3 4 3 4 5 4 7 7 7 6 2 3 2 8 4 4 3 6 10 18 16 9 4 3 3 5 6 3 2
13 13 12 11 11 9 10 6 3 4 2 0 1 1 2 2 1 3 3 3 5 6 5 3 1 3 3 4 3 6 8 10 8 6 12 3 2 1 3 3 4 3 2
14 15 15 14 13 12 10 6 5 4 2 2 1 3 2 2 2 1 3 4 4 4 4 5 5 3 5 2 2 5 7 6 9 5 3 2 2 3 2 2 3 4 3
16 18 18 16 14 12 9 5 4 4 4 4 2 1 6 2 3 3 3 3 4 4 5 5 3 3 4 4 1 2 4 6 4 8 7 7 6 6 3 2 1 3 2
19 19 18 17 14 11 8 5 3 5 6 5 4 4 4 5 2 2 3 1 2 3 3 3 0 1 2 2 3 5 2 3 5 8 6 8 9 7 6 4 1 3 3
19 20 18 16 13 11 9 6 4 5 7 8 6 5 6 3 5 4 6 4 0 3 2 2 3 3 3 3 5 5 6 3 5 2 2 3 3 4 7 6 3 4 5
20 23 21 20 16 15 14 11 8 8 5 7 7 5 4 3 2 3 3 4 1 4 2 2 1 2 5 4 6 4 4 3 2 3 3 5 5 4 5 3 4 3 5
25 25 24 23 20 17 15 12 6 8 6 7 8 6 5 4 3 3 4 3 1 1 2 3 4 2 2 1 2 1 2 2 5 2 3 4 3 3 4 5 3 5 6
27 31 30 25 22 19 16 11 9 8 5 8 8 9 5 4 3 1 1 5 3 1 2 4 5 4 4 3 4 1 2 1 1 1 1 1 2 2 5 6 4 4 4
33 30 29 25 22 21 18 14 12 11 9 7 7 6 6 5 4 1 2 2 4 3 2 4 5 5 4 3 3 4 1 1 1 1 2 0 2 3 6 7 7 4 5
27 32 29 26 23 21 20 20 15 12 9 6 10 8 7 7 7 3 1 2 5 4 3 3 3 3 4 3 4 1 1 1 1 2 1 2 2 4 4 0 6 3 5
25 27 29 27 27 25 23 20 17 14 11 9 8 10 9 7 8 6 5 5 2 1 2 2 3 4 4 3 2 4 2 1 2 1 1 2 3 2 1 3 6 3 4
Wind_Direction
177 173 170 167 155 134 122 117 113 121 125 127 131 126 125 122 113 107 103 101 100 101 104 112 107 94 101 111 115 118 117 116 111 110 111 114 111 104 103 108 120 128 125
167 166 159 154 159 144 134 115 115 130 127 130 123 123 122 121 112 108 104 108 108 104 112 109 96 103 119 126 114 103 108 110 107 104 98 101 112 106 105 111 118 129 130
151 154 157 164 157 165 141 120 124 122 128 126 121 120 121 119 115 105 105 107 112 112 110 103 113 114 114 101 97 108 110 110 113 103 105 114 121 107 103 119 115 128 140
149 152 158 161 163 158 140 127 135 121 127 120 113 116 116 112 108 105 107 110 108 103 92 106 108 112 104 105 110 105 106 110 104 96 99 108 116 125 117 136 139 142 153
152 154 150 156 154 143 133 112 118 125 126 117 109 112 111 108 107 101 103 97 91 92 102 93 92 92 99 98 99 93 83 79 81 95 58 85 141 147 152 151 158 166 171
150 150 145 146 135 125 123 120 123 117 119 114 108 110 110 103 94 96 86 76 74 85 85 83 80 91 89 83 75 60 38 3 320 301 295 269 186 167 168 164 169 178 186
150 152 150 135 131 129 114 116 117 112 113 117 117 110 107 100 95 86 76 70 67 59 62 66 68 70 61 56 46 35 26 3 355 347 311 247 241 205 196 193 189 209 228
172 168 153 152 139 134 120 121 109 102 105 108 108 99 91 96 91 77 68 66 61 61 60 55 51 54 62 51 30 17 14 7 3 355 353 215 268 243 229 228 217 232 223
188 178 167 150 145 135 130 114 103 91 99 97 91 92 96 88 84 71 68 60 53 50 48 48 52 53 42 21 15 17 6 2 354 330 325 308 312 249 253 253 244 242 242
162 171 165 152 138 140 134 115 109 102 86 87 105 104 98 105 85 70 65 55 45 42 39 40 45 47 41 36 24 13 359 356 359 341 317 302 322 251 265 282 279 271 259
137 147 162 143 135 132 128 116 114 105 108 117 116 103 96 93 81 70 55 39 33 40 42 52 50 62 60 35 24 20 9 8 5 336 336 324 312 295 285 284 286 280 274
150 144 152 156 139 145 136 129 95 96 100 96 97 85 84 90 83 63 41 23 38 37 35 50 52 48 32 13 7 12 358 344 339 353 357 330 301 298 282 287 292 285 277
162 158 153 153 157 161 152 151 114 113 103 96 83 65 76 225 51 40 74 58 66 48 38 65 77 65 78 75 84 17 9 301 313 307 322 322 319 301 297 307 305 287 279
172 168 166 164 166 173 167 166 141 120 110 119 96 72 77 107 121 90 71 53 58 48 53 86 95 90 116 113 76 360 316 289 277 288 309 343 339 326 305 314 319 297 280
174 177 179 174 171 172 175 173 152 132 119 116 85 46 63 130 114 79 73 69 64 57 72 114 124 191 230 82 59 74 273 241 306 274 287 344 3 347 304 318 337 347 314
181 179 179 179 169 170 181 172 133 145 103 64 339 43 60 191 224 61 89 84 69 70 79 73 194 197 256 268 304 326 202 229 327 293 267 273 81 299 288 315 328 31 291
192 184 183 179 179 182 184 178 172 178 272 284 290 288 203 122 265 146 139 110 79 70 114 174 199 266 266 249 43 43 182 291 313 342 309 254 243 233 274 301 352 35 20
200 194 185 184 189 190 198 221 221 231 244 257 284 346 187 232 324 166 145 139 87 83 154 164 184 226 240 240 206 246 250 292 301 322 291 264 246 239 230 266 28 41 54
208 209 203 193 199 195 204 193 177 195 221 233 255 252 234 258 177 183 212 165 114 132 140 138 98 338 296 171 240 168 16 339 305 282 250 243 238 238 231 211 106 91 93
219 217 217 206 200 196 198 190 174 218 225 245 242 232 236 252 270 264 231 245 291 173 156 136 126 101 86 101 142 190 307 20 17 16 207 176 181 226 202 200 155 97 93
219 222 219 210 205 198 197 198 199 197 204 206 219 233 246 260 277 280 214 256 189 186 166 105 54 115 84 90 131 165 145 122 58 45 119 139 127 128 137 193 161 100 88
216 218 217 215 209 209 208 205 206 193 212 219 233 258 249 267 298 312 218 224 167 161 120 95 43 54 60 89 75 97 54 245 245 23 146 125 105 154 106 107 95 121 89
221 219 222 225 214 213 207 202 191 190 201 212 227 216 246 260 276 354 163 181 220 223 59 87 53 33 57 67 34 75 69 250 341 160 169 154 208 103 111 71 73 114 93
220 221 222 226 223 221 207 205 196 199 201 210 224 221 243 241 251 335 131 135 178 180 81 65 49 33 25 39 45 30 68 238 198 87 193 300 130 154 141 89 48 117 113
216 216 220 223 227 225 219 215 212 208 211 217 231 228 239 240 240 258 228 180 178 144 97 48 36 30 357 8 51 28 5 73 4 140 154 307 181 122 157 286 21 114 112
210 215 218 220 228 227 221 221 222 217 212 221 237 231 231 248 242 244 240 244 199 134 55 10 5 359 350 8 31 43 17 4 289 269 121 266 295 183 254 315 350 146 135
Height
800 802 804 806 808 810 811 813 814 814 816 817 817 817 818 819 820 821 823 824 825 826 827 826 828 830 831 831 830 830 831 832 834 835 835 835 835 836 836 836 837 838 838
799 802 805 808 809 812 813 815 815 816 816 818 819 820 820 821 822 824 825 827 828 827 827 829 831 830 830 830 831 834 835 836 836 837 838 837 837 838 839 839 839 840 841
800 803 806 809 811 813 815 817 818 818 819 820 820 822 823 823 825 826 827 829 829 828 829 832 832 833 832 835 836 836 837 838 837 838 838 838 839 840 840 841 842 842 843
802 805 807 810 812 814 816 818 820 821 822 821 823 822 824 825 827 829 829 830 829 830 833 833 834 835 837 838 838 838 839 839 840 840 841 841 841 841 841 842 843 844 845
805 807 809 812 814 815 818 820 821 822 823 823 825 825 828 829 829 831 830 831 833 834 833 836 836 838 839 839 840 840 841 841 842 842 841 842 842 842 842 842 843 845 846
807 809 811 813 816 818 820 821 823 824 823 824 826 828 830 831 831 831 832 834 836 835 836 838 838 840 841 841 842 843 842 842 842 842 842 843 842 843 843 843 844 845 846
810 812 814 815 817 820 821 822 824 825 825 827 829 831 832 833 833 834 836 837 836 838 839 839 841 842 842 843 843 842 842 842 841 842 842 842 844 844 844 845 845 846 846
812 814 816 818 819 821 822 824 827 826 829 830 831 833 835 835 836 837 838 837 838 840 841 842 843 843 843 843 842 842 843 844 844 843 843 842 845 846 846 846 846 846 846
813 815 818 819 822 823 823 827 827 829 831 832 833 834 836 837 838 839 839 839 841 842 843 843 843 843 843 843 843 844 845 846 846 844 844 843 843 844 845 845 844 844 845
814 817 820 821 822 825 826 829 830 832 832 833 833 835 836 838 839 840 840 841 843 844 844 844 843 843 842 843 843 844 845 845 845 845 845 846 844 842 843 843 843 843 843
816 818 821 823 825 827 830 831 832 832 834 835 835 836 838 838 839 841 842 843 843 844 844 844 843 842 841 841 842 842 844 845 845 845 844 844 846 843 842 842 842 842 841
818 819 822 825 826 828 830 832 832 834 835 836 837 838 838 839 840 842 843 843 844 843 843 843 843 841 840 839 839 840 842 844 845 844 844 845 844 843 843 841 840 840 839
819 821 823 825 828 830 832 833 834 836 836 837 837 838 839 840 841 842 843 843 843 843 842 842 841 840 838 837 838 836 841 845 844 844 845 842 841 841 842 841 839 838 838
819 822 824 826 828 831 833 833 835 836 837 838 838 839 840 840 841 842 843 844 843 843 842 841 840 839 835 832 834 836 837 841 843 842 844 841 840 841 843 843 840 838 837
820 822 824 827 828 831 833 834 836 836 836 838 839 840 840 840 841 842 843 843 843 842 842 841 839 839 838 838 836 836 838 839 839 841 842 841 841 841 843 843 841 838 838
821 823 825 828 830 831 832 835 837 837 838 839 839 840 840 840 841 842 843 843 843 843 841 840 839 840 838 834 836 837 838 840 840 839 840 841 841 842 843 842 841 838 838
823 824 825 828 830 832 834 836 837 838 838 838 839 839 840 840 840 842 842 843 843 843 842 840 840 839 838 837 838 839 839 839 838 839 840 841 841 842 843 843 842 840 838
822 823 825 828 829 832 834 836 838 838 838 838 839 839 840 840 841 842 843 843 842 843 842 841 840 839 838 838 839 842 842 842 842 841 841 842 842 842 842 842 842 841 839
821 823 826 828 828 831 833 835 836 837 837 838 839 840 840 841 841 842 843 843 843 843 842 842 841 838 838 840 840 843 844 842 841 840 840 841 841 842 842 842 842 841 840
820 822 825 828 829 830 832 835 836 837 837 838 839 840 841 841 842 841 842 843 844 845 842 842 841 840 840 841 841 844 844 842 841 843 841 840 840 840 842 842 842 841 840
819 821 823 827 829 830 832 833 835 836 836 837 838 840 841 841 841 841 842 843 844 845 842 842 841 840 841 841 842 844 843 843 844 842 841 840 840 840 840 841 841 841 840
816 819 821 824 827 828 830 832 833 834 836 837 838 839 840 840 841 841 843 843 843 844 843 842 840 840 841 841 841 841 844 844 844 843 842 842 842 842 841 841 841 841 840
812 814 817 821 825 826 829 832 832 833 834 835 837 838 839 840 841 842 843 843 843 843 843 842 841 841 840 841 841 842 844 845 844 843 844 843 843 842 841 841 841 841 841
806 811 815 819 823 825 827 830 831 832 833 834 835 837 838 840 841 841 843 843 844 844 843 842 843 842 841 841 842 842 842 843 843 845 845 843 842 842 841 841 840 840 840
805 808 812 816 820 823 827 828 830 830 831 833 835 836 837 839 840 841 843 843 844 844 843 843 843 843 842 843 843 842 843 842 842 843 844 842 842 841 841 841 840 841 841
802 806 810 814 816 820 824 826 828 829 830 831 833 835 836 837 839 840 842 843 843 843 843 843 843 842 844 844 843 843 843 842 841 841 842 842 841 840 840 840 839 840 840